DLH28AP LFBO-EDDF

Flight info

Callsign DLH28AP
Flight time N/A
Altitude 36000
Route MEN7A MEN DCT NINUN DCT LATAM DCT ETREK DCT LTP DCT SOPLO DCT OMASI DCT KINNI DCT SOSAL DCT KORED DCT BERSU N871 DITON/N0474F350 DCT LADOL/N0476F360 T163 EMPAX EMPAX5C
Aircraft A359/H-SDE2E3GHIJ3J4J5LM1ORWXY/LB1D1

Departure

Time 2026-04-28 15:11
Airport Toulouse-Blagnac Airport (LFBO)

Arrival

Time N/A
Airport Frankfurt Main Airport (EDDF)
Time Latitude Longitude Altitude Speed Heading
2026-04-28 14:43 43.63440 1.34987 501 ft 0 kts 228°
2026-04-28 14:51 43.63452 1.35004 501 ft 4 kts 227°
2026-04-28 14:52 43.63466 1.35034 501 ft 4 kts 262°
2026-04-28 14:52 43.63463 1.35069 501 ft 4 kts 296°
2026-04-28 14:52 43.63462 1.35074 501 ft 4 kts 301°
2026-04-28 14:53 43.63451 1.35093 501 ft 2 kts 322°
2026-04-28 14:53 43.63446 1.35098 501 ft 0 kts 323°
2026-04-28 14:58 43.63447 1.35098 501 ft 1 kts 323°
2026-04-28 14:58 43.63459 1.35084 501 ft 6 kts 321°
2026-04-28 14:58 43.63506 1.35036 501 ft 11 kts 323°
2026-04-28 14:59 43.63580 1.34960 501 ft 15 kts 323°
2026-04-28 14:59 43.63649 1.34979 501 ft 12 kts 50°
2026-04-28 14:59 43.63726 1.34988 501 ft 13 kts 333°
2026-04-28 14:59 43.63813 1.34902 501 ft 17 kts 322°
2026-04-28 15:00 43.63920 1.34790 501 ft 21 kts 323°
2026-04-28 15:00 43.64047 1.34659 501 ft 25 kts 323°
2026-04-28 15:00 43.64164 1.34540 501 ft 5 kts 323°
2026-04-28 15:00 43.64165 1.34540 501 ft 0 kts 323°
2026-04-28 15:09 43.64167 1.34538 501 ft 2 kts 323°
2026-04-28 15:09 43.64216 1.34486 501 ft 13 kts 323°
2026-04-28 15:09 43.64271 1.34448 501 ft 14 kts 353°
2026-04-28 15:10 43.64373 1.34564 501 ft 16 kts 57°
2026-04-28 15:10 43.64331 1.34686 501 ft 12 kts 140°
2026-04-28 15:10 43.64266 1.34750 502 ft 19 kts 144°
2026-04-28 15:10 43.63972 1.35056 503 ft 97 kts 142°
2026-04-28 15:11 43.63210 1.35849 509 ft 173 kts 142°
2026-04-28 15:11 43.62226 1.36837 1420 ft 168 kts 141°
2026-04-28 15:11 43.61276 1.37820 2357 ft 182 kts 139°
2026-04-28 15:11 43.60221 1.38975 2834 ft 201 kts 138°
2026-04-28 15:12 43.59085 1.40270 3305 ft 223 kts 138°
2026-04-28 15:12 43.57843 1.41724 3750 ft 245 kts 137°
2026-04-28 15:12 43.56517 1.43299 4258 ft 262 kts 137°
2026-04-28 15:12 43.55315 1.45114 5262 ft 251 kts 118°
2026-04-28 15:13 43.54956 1.47395 6267 ft 248 kts 86°
2026-04-28 15:13 43.55573 1.49717 6533 ft 273 kts 53°
2026-04-28 15:13 43.56971 1.51532 7248 ft 277 kts 39°
2026-04-28 15:13 43.58458 1.53294 7904 ft 286 kts 43°
2026-04-28 15:14 43.59890 1.55236 8605 ft 290 kts 45°
2026-04-28 15:14 43.61274 1.57274 9430 ft 293 kts 47°
2026-04-28 15:14 43.62653 1.59383 10166 ft 299 kts 46°
2026-04-28 15:14 43.64124 1.61522 10530 ft 317 kts 45°
2026-04-28 15:15 43.65689 1.63792 10852 ft 335 kts 46°
2026-04-28 15:15 43.66766 1.65370 11101 ft 345 kts 46°
2026-04-28 15:15 43.68993 1.68656 11833 ft 355 kts 46°
2026-04-28 15:15 43.70792 1.71023 12431 ft 360 kts 38°
2026-04-28 15:16 43.72793 1.73137 13050 ft 364 kts 35°
2026-04-28 15:16 43.74851 1.75225 13684 ft 369 kts 35°
2026-04-28 15:16 43.76934 1.77342 14239 ft 374 kts 35°
2026-04-28 15:16 43.79038 1.79489 14805 ft 377 kts 36°
2026-04-28 15:17 43.81159 1.81660 15369 ft 381 kts 36°
2026-04-28 15:17 43.83298 1.83853 15947 ft 385 kts 36°
2026-04-28 15:17 43.85416 1.86179 16472 ft 390 kts 43°
2026-04-28 15:17 43.87085 1.89152 17041 ft 394 kts 59°
2026-04-28 15:18 43.88428 1.92489 17598 ft 397 kts 62°
2026-04-28 15:18 43.89740 1.95884 18179 ft 400 kts 62°
2026-04-28 15:18 43.91065 1.99304 18667 ft 404 kts 62°
2026-04-28 15:18 43.92540 2.02631 19139 ft 407 kts 53°
2026-04-28 15:19 43.94316 2.05708 19636 ft 410 kts 50°
2026-04-28 15:19 43.96172 2.08734 20126 ft 413 kts 49°
2026-04-28 15:19 43.97992 2.11690 20597 ft 416 kts 49°
2026-04-28 15:19 43.99879 2.14765 21088 ft 419 kts 49°
2026-04-28 15:20 44.01778 2.17867 21547 ft 423 kts 49°
2026-04-28 15:20 44.03694 2.21001 21936 ft 428 kts 49°
2026-04-28 15:20 44.05629 2.24174 22402 ft 431 kts 49°
2026-04-28 15:20 44.07572 2.27361 22871 ft 434 kts 49°
2026-04-28 15:21 44.09530 2.30578 23323 ft 437 kts 49°
2026-04-28 15:21 44.11494 2.33812 23776 ft 439 kts 49°
2026-04-28 15:21 44.13473 2.37072 24179 ft 442 kts 49°
2026-04-28 15:21 44.15466 2.40357 24565 ft 445 kts 49°
2026-04-28 15:22 44.17466 2.43659 24952 ft 447 kts 49°
2026-04-28 15:22 44.19479 2.46987 25346 ft 450 kts 49°
2026-04-28 15:22 44.21506 2.50341 25711 ft 455 kts 49°
2026-04-28 15:22 44.23555 2.53736 26110 ft 459 kts 49°
2026-04-28 15:23 44.25590 2.57112 26578 ft 461 kts 49°
2026-04-28 15:23 44.27688 2.60596 27033 ft 465 kts 49°
2026-04-28 15:23 44.29775 2.64066 27463 ft 468 kts 50°
2026-04-28 15:23 44.31848 2.67518 27954 ft 471 kts 50°
2026-04-28 15:24 44.33960 2.71038 28533 ft 472 kts 49°
2026-04-28 15:24 44.36072 2.74562 29098 ft 475 kts 49°
2026-04-28 15:24 44.38204 2.78124 29564 ft 479 kts 49°
2026-04-28 15:24 44.40350 2.81714 30029 ft 484 kts 49°
2026-04-28 15:25 44.42529 2.85365 30403 ft 490 kts 49°
2026-04-28 15:25 44.43979 2.87796 30713 ft 492 kts 49°
2026-04-28 15:25 44.46189 2.91507 31196 ft 495 kts 49°
2026-04-28 15:25 44.49128 2.96448 31818 ft 499 kts 50°
2026-04-28 15:26 44.50635 2.98985 32113 ft 502 kts 50°
2026-04-28 15:26 44.52873 3.02758 32551 ft 505 kts 50°
2026-04-28 15:26 44.55110 3.06533 32953 ft 508 kts 49°
2026-04-28 15:26 44.57371 3.10354 33505 ft 510 kts 49°
2026-04-28 15:27 44.59638 3.14214 33844 ft 516 kts 50°
2026-04-28 15:27 44.61700 3.18388 34194 ft 521 kts 58°
2026-04-28 15:27 44.63566 3.22772 34569 ft 524 kts 59°
2026-04-28 15:27 44.65380 3.27252 34920 ft 526 kts 60°
2026-04-28 15:28 44.67164 3.31758 35255 ft 528 kts 60°
2026-04-28 15:28 44.68921 3.36224 35696 ft 528 kts 60°
2026-04-28 15:28 44.70714 3.40774 35989 ft 530 kts 60°
2026-04-28 15:29 44.74240 3.49686 36037 ft 515 kts 60°
2026-04-28 15:29 44.77719 3.58440 36036 ft 513 kts 60°
2026-04-28 15:30 44.81210 3.67232 36036 ft 513 kts 60°
2026-04-28 15:30 44.84697 3.76066 36036 ft 514 kts 60°
2026-04-28 15:31 44.88141 3.84819 36026 ft 513 kts 60°
2026-04-28 15:31 44.91613 3.93668 36027 ft 513 kts 60°
2026-04-28 15:32 44.95073 4.02510 36033 ft 513 kts 60°
2026-04-28 15:32 44.98516 4.11340 36035 ft 513 kts 60°
2026-04-28 15:33 45.01942 4.20152 36033 ft 513 kts 60°
2026-04-28 15:33 45.05369 4.28984 36033 ft 512 kts 60°
2026-04-28 15:34 45.08790 4.37839 36030 ft 512 kts 60°
2026-04-28 15:34 45.12206 4.46720 36023 ft 512 kts 60°
2026-04-28 15:35 45.15608 4.55585 36020 ft 512 kts 60°
2026-04-28 15:35 45.20689 4.68873 36014 ft 511 kts 60°
2026-04-28 15:36 45.24074 4.77764 36014 ft 510 kts 60°
2026-04-28 15:36 45.27440 4.86640 36009 ft 510 kts 60°
2026-04-28 15:37 45.30785 4.95485 36013 ft 511 kts 60°
2026-04-28 15:37 45.34157 5.04428 36007 ft 511 kts 60°
2026-04-28 15:38 45.37497 5.13316 36018 ft 510 kts 60°
2026-04-28 15:38 45.40842 5.22244 36020 ft 510 kts 60°
2026-04-28 15:39 45.44174 5.31169 36020 ft 510 kts 61°
2026-04-28 15:39 45.47545 5.40097 36017 ft 510 kts 57°
2026-04-28 15:40 45.52011 5.47787 36014 ft 505 kts 41°
2026-04-28 15:40 45.57172 5.54568 36011 ft 504 kts 39°
2026-04-28 15:41 45.62422 5.61213 36006 ft 504 kts 38°
2026-04-28 15:41 45.67667 5.67874 36013 ft 504 kts 38°
2026-04-28 15:42 45.72899 5.74578 36006 ft 504 kts 39°
2026-04-28 15:42 45.78122 5.81283 36011 ft 504 kts 39°
2026-04-28 15:43 45.83351 5.88017 36024 ft 504 kts 39°
2026-04-28 15:43 45.88565 5.94749 36019 ft 504 kts 38°
2026-04-28 15:44 45.93747 6.01447 36021 ft 503 kts 38°
2026-04-28 15:44 45.98950 6.08197 36021 ft 503 kts 39°
2026-04-28 15:45 46.04143 6.14956 36021 ft 504 kts 39°
2026-04-28 15:45 46.09349 6.21747 36042 ft 504 kts 39°
2026-04-28 15:46 46.14420 6.28743 36045 ft 505 kts 41°
2026-04-28 15:46 46.19382 6.35935 36053 ft 505 kts 42°
2026-04-28 15:47 46.24364 6.43131 36042 ft 506 kts 41°
2026-04-28 15:47 46.29357 6.50290 36038 ft 505 kts 41°
2026-04-28 15:48 46.34355 6.57456 36037 ft 506 kts 41°
2026-04-28 15:48 46.39335 6.64612 36047 ft 505 kts 41°
2026-04-28 15:49 46.44350 6.71838 36044 ft 506 kts 41°
2026-04-28 15:49 46.49345 6.79055 36050 ft 506 kts 41°
2026-04-28 15:50 46.54324 6.86274 36052 ft 506 kts 41°
2026-04-28 15:50 46.58950 6.94046 36046 ft 507 kts 47°
2026-04-28 15:51 46.63369 7.01959 36052 ft 507 kts 48°
2026-04-28 15:51 46.67787 7.09969 36052 ft 506 kts 48°
2026-04-28 15:52 46.72194 7.17970 36054 ft 506 kts 48°
2026-04-28 15:52 46.76606 7.25983 36057 ft 507 kts 48°
2026-04-28 15:53 46.81025 7.34030 36036 ft 508 kts 48°
2026-04-28 15:53 46.85434 7.42082 36045 ft 507 kts 48°
2026-04-28 15:54 46.89827 7.50130 36054 ft 506 kts 48°
2026-04-28 15:54 46.94213 7.58212 36052 ft 506 kts 48°
2026-04-28 15:55 46.98616 7.66346 36048 ft 508 kts 48°
2026-04-28 15:55 47.02986 7.74439 36052 ft 509 kts 48°
2026-04-28 15:56 47.07380 7.82597 36053 ft 509 kts 48°
2026-04-28 15:56 47.11773 7.90780 36062 ft 509 kts 48°
2026-04-28 15:57 47.15801 7.99328 36047 ft 513 kts 54°
2026-04-28 15:57 47.19629 8.08214 36045 ft 513 kts 55°
2026-04-28 15:58 47.22776 8.15657 36045 ft 513 kts 55°
2026-04-28 15:58 47.26550 8.24605 36044 ft 513 kts 55°
2026-04-28 15:59 47.31011 8.32610 36044 ft 503 kts 36°
2026-04-28 15:59 47.33822 8.35631 36042 ft 494 kts 25°
2026-04-28 15:59 47.36849 8.38040 36041 ft 491 kts 21°
2026-04-28 16:00 47.42987 8.42456 36046 ft 490 kts 19°
2026-04-28 16:00 47.49131 8.46739 36068 ft 490 kts 20°
2026-04-28 16:01 47.55286 8.51068 36048 ft 491 kts 20°
2026-04-28 16:01 47.61459 8.55458 36047 ft 491 kts 20°
2026-04-28 16:02 47.67595 8.59845 36045 ft 491 kts 20°
2026-04-28 16:02 47.73768 8.64269 36043 ft 491 kts 20°
2026-04-28 16:03 47.79919 8.68686 36040 ft 490 kts 20°
2026-04-28 16:03 47.86075 8.73118 36039 ft 490 kts 20°
2026-04-28 16:04 47.92222 8.77557 36044 ft 489 kts 19°
2026-04-28 16:04 47.98342 8.81987 36044 ft 488 kts 19°
2026-04-28 16:05 48.04413 8.86390 36044 ft 487 kts 19°
2026-04-28 16:05 48.10521 8.90834 36060 ft 487 kts 19°
2026-04-28 16:06 48.16750 8.94747 36048 ft 477 kts
2026-04-28 16:06 48.23166 8.96275 36049 ft 467 kts 359°
2026-04-28 16:07 48.29651 8.97287 36052 ft 467 kts 359°
2026-04-28 16:08 48.39331 8.98766 36046 ft 468 kts 359°
2026-04-28 16:08 48.45310 8.99678 36046 ft 468 kts 359°
2026-04-28 16:09 48.51775 9.00672 35329 ft 465 kts 358°
2026-04-28 16:09 48.55026 9.01164 34348 ft 471 kts 358°
2026-04-28 16:09 48.58316 9.01661 33307 ft 476 kts 358°
2026-04-28 16:10 48.64943 9.02712 31487 ft 485 kts
2026-04-28 16:10 48.68295 9.03505 30836 ft 500 kts
2026-04-28 16:10 48.75179 9.05242 29081 ft 499 kts
2026-04-28 16:11 48.81961 9.06908 27513 ft 487 kts
2026-04-28 16:11 48.88583 9.08509 26014 ft 476 kts
2026-04-28 16:12 48.95090 9.09533 24535 ft 462 kts
2026-04-28 16:12 48.98234 9.09927 23815 ft 457 kts
2026-04-28 16:13 49.04490 9.10773 22299 ft 443 kts
2026-04-28 16:13 49.07536 9.11196 21607 ft 434 kts
2026-04-28 16:13 49.13434 9.12028 20399 ft 419 kts
2026-04-28 16:14 49.19330 9.12861 19046 ft 432 kts
2026-04-28 16:14 49.25263 9.13712 17622 ft 426 kts
2026-04-28 16:15 49.31046 9.15085 16173 ft 416 kts 11°
2026-04-28 16:15 49.33878 9.16082 15524 ft 413 kts 12°
2026-04-28 16:15 49.36672 9.17079 14871 ft 408 kts 12°
2026-04-28 16:16 49.41909 9.18947 13680 ft 360 kts 12°
2026-04-28 16:16 49.44271 9.19788 13107 ft 335 kts 12°
2026-04-28 16:17 49.48584 9.21324 12021 ft 306 kts 13°
2026-04-28 16:17 49.50669 9.22066 11569 ft 306 kts 13°
2026-04-28 16:17 49.52746 9.22805 11092 ft 305 kts 13°
2026-04-28 16:17 49.54790 9.23529 10901 ft 306 kts 13°
2026-04-28 16:18 49.56949 9.24300 10865 ft 338 kts 13°
2026-04-28 16:18 49.59344 9.25157 10820 ft 360 kts 13°
2026-04-28 16:18 49.61710 9.26005 10649 ft 333 kts 13°
2026-04-28 16:18 49.63855 9.26774 10468 ft 300 kts 13°
2026-04-28 16:19 49.65788 9.27468 10324 ft 271 kts 13°
2026-04-28 16:19 49.67550 9.28100 10193 ft 247 kts 13°
2026-04-28 16:19 49.69235 9.28706 10144 ft 267 kts 13°
2026-04-28 16:19 49.71129 9.29383 10131 ft 284 kts 13°
2026-04-28 16:20 49.73053 9.30235 10108 ft 289 kts 24°
2026-04-28 16:20 49.74651 9.32080 10121 ft 289 kts 50°
2026-04-28 16:20 49.75579 9.34820 10118 ft 289 kts 75°
2026-04-28 16:20 49.75662 9.37871 10116 ft 289 kts 99°
2026-04-28 16:21 49.74894 9.40729 10121 ft 289 kts 126°
2026-04-28 16:21 49.73405 9.42784 10124 ft 289 kts 151°
2026-04-28 16:21 49.71492 9.43656 10130 ft 288 kts 175°
2026-04-28 16:21 49.69480 9.43737 10121 ft 289 kts 184°
2026-04-28 16:22 49.67569 9.42971 10122 ft 289 kts 207°
2026-04-28 16:22 49.66013 9.40978 10122 ft 289 kts 233°
2026-04-28 16:22 49.64933 9.38396 10117 ft 289 kts 242°
2026-04-28 16:22 49.64256 9.35485 10107 ft 289 kts 260°
2026-04-28 16:23 49.64339 9.32396 10117 ft 289 kts 285°
2026-04-28 16:23 49.65312 9.29724 10105 ft 289 kts 314°
2026-04-28 16:23 49.66917 9.27890 10118 ft 293 kts 329°
2026-04-28 16:23 49.68665 9.26292 10109 ft 290 kts 329°
2026-04-28 16:24 49.70402 9.24708 10111 ft 290 kts 329°
2026-04-28 16:24 49.72127 9.23105 10105 ft 289 kts 329°
2026-04-28 16:24 49.73904 9.21433 10121 ft 312 kts 328°
2026-04-28 16:24 49.75836 9.19601 10120 ft 334 kts 328°
2026-04-28 16:25 49.77830 9.17701 10116 ft 345 kts 328°
2026-04-28 16:25 49.79915 9.15708 10111 ft 357 kts 328°
2026-04-28 16:25 49.82052 9.13662 10111 ft 363 kts 328°